Vorticity
nan nan nan nan nan nan nan nan nan nan nan nan nan nan nan nan nan nan nan nan nan nan nan nan nan nan nan nan nan nan nan nan nan nan nan nan nan nan nan nan nan nan nan
nan 1 1 7 8 7 8 8 7 6 7 8 8 7 7 8 7 6 7 6 6 6 5 6 5 5 6 6 6 6 5 4 4 5 5 3 5 7 6 4 4 7 nan
nan 6 2 6 7 7 7 8 7 7 6 6 7 7 8 6 6 7 7 8 8 6 7 7 6 6 5 5 6 6 6 5 6 6 6 6 4 4 6 5 5 4 nan
nan 7 3 5 7 7 7 7 6 6 6 6 6 7 7 7 6 6 6 6 8 8 7 7 7 6 7 6 6 6 5 6 6 8 7 5 5 6 6 5 5 4 nan
nan 7 5 5 7 7 7 7 7 7 7 6 7 6 7 7 6 5 6 6 6 8 8 7 7 7 8 7 7 6 6 7 8 6 6 6 7 9 7 5 6 6 nan
nan 5 6 6 7 6 7 7 7 7 6 7 7 7 6 6 6 5 6 6 6 7 8 8 8 8 7 7 8 7 7 8 9 7 6 6 5 11 10 6 7 6 nan
nan 7 5 4 7 7 7 7 6 7 6 7 7 7 6 7 7 7 6 7 6 7 6 7 7 7 9 9 7 8 8 9 9 7 6 7 3 7 13 9 7 6 nan
nan 6 5 3 5 5 5 7 7 6 6 7 7 7 6 6 6 6 6 6 7 7 6 7 7 7 7 7 7 7 10 12 10 7 7 5 2 7 13 10 7 5 nan
nan 7 6 4 1 1 3 7 6 5 6 7 6 7 6 5 6 5 6 5 7 7 7 7 7 7 8 7 6 6 12 16 11 7 7 4 3 6 10 12 9 7 nan
nan 6 7 7 7 6 2 -0 4 4 5 5 5 6 5 3 2 3 4 6 7 7 7 7 7 7 7 6 6 8 13 15 11 9 8 2 3 9 9 10 11 10 nan
nan 6 7 7 7 9 7 0 -0 0 1 4 3 5 9 6 1 0 0 5 6 7 6 6 7 8 8 6 5 8 15 11 8 10 6 1 6 9 8 9 10 11 nan
nan 6 7 7 7 9 6 6 5 4 3 2 4 5 7 6 5 3 -1 0 3 4 5 5 6 9 13 11 4 7 8 6 9 8 5 5 6 6 8 8 8 10 nan
nan 5 5 8 7 8 8 9 8 6 6 4 5 9 9 7 7 7 6 4 -0 4 8 4 7 5 6 9 8 6 7 9 8 6 2 6 11 9 7 6 5 8 nan
nan 6 6 7 8 8 10 7 7 8 7 6 4 7 10 8 6 7 7 7 8 5 6 9 6 4 6 7 7 7 8 9 8 7 3 3 11 11 8 4 3 6 nan
nan 6 6 8 8 7 9 8 7 7 7 7 6 7 9 8 7 7 7 7 7 7 7 7 7 7 6 7 8 7 7 7 8 8 3 3 8 8 6 6 6 5 nan
nan 7 7 7 7 9 7 9 9 7 7 8 6 6 9 9 8 8 7 7 7 7 7 7 7 8 8 7 7 7 8 8 8 7 7 6 5 7 5 6 6 5 nan
nan 6 8 7 7 8 8 8 8 8 8 7 6 5 7 9 9 9 8 7 7 7 8 9 8 9 8 7 7 8 8 8 8 8 9 9 8 7 8 7 5 5 nan
nan 7 7 6 7 8 9 8 7 8 8 6 7 6 6 8 9 9 8 7 8 8 9 8 7 9 8 8 8 8 8 8 8 10 10 10 11 10 7 7 9 8 nan
nan 7 8 7 7 8 9 8 7 7 8 8 7 6 6 7 9 9 7 7 8 9 8 8 8 8 7 7 9 9 8 8 10 10 7 10 10 12 9 7 10 12 nan
nan 6 7 7 7 9 10 8 6 7 6 8 8 6 8 7 7 10 8 8 9 8 7 8 8 11 8 6 10 10 11 10 9 6 8 7 8 8 9 12 14 7 nan
nan 5 7 7 8 10 10 8 7 7 6 7 6 6 8 8 9 10 8 8 9 8 7 9 10 9 7 11 15 10 10 8 4 4 11 7 4 7 8 9 9 8 nan
nan 5 6 6 8 10 10 9 9 8 8 6 6 6 6 8 9 9 9 8 9 8 7 7 12 14 6 9 14 10 9 9 3 8 6 5 7 9 4 6 6 9 nan
nan 7 7 6 6 7 10 12 11 9 8 6 6 6 5 7 9 9 9 9 9 8 7 7 7 9 11 8 9 13 10 4 7 12 2 4 9 7 7 6 8 6 nan
nan 8 7 7 6 6 9 12 11 11 8 7 7 6 6 7 8 8 9 9 10 8 7 8 7 8 8 10 7 6 11 7 7 5 5 3 6 8 9 8 6 8 nan
nan 8 7 7 7 7 8 9 9 10 8 8 8 8 8 7 6 7 8 9 9 9 7 7 7 9 9 7 7 6 9 14 7 6 2 5 9 9 7 6 9 9 nan
nan nan nan nan nan nan nan nan nan nan nan nan nan nan nan nan nan nan nan nan nan nan nan nan nan nan nan nan nan nan nan nan nan nan nan nan nan nan nan nan nan nan nan
CAPE
0 0 2 27 49 45 49 80 85 67 90 129 247 219 217 252 255 232 252 102 211 136 188 253 401 435 386 409 460 423 441 484 541 492 421 515 774 815 728 299 382 480 975
0 0 0 19 47 47 47 44 62 47 48 63 71 81 200 215 234 262 267 177 195 216 167 158 305 368 369 365 431 431 375 317 247 235 165 123 306 815 862 619 562 191 780
0 0 0 29 41 42 40 40 34 34 33 31 45 59 59 57 57 44 77 180 167 129 184 183 216 298 262 263 395 445 356 215 130 86 14 0 48 646 786 873 929 232 289
0 0 0 32 38 37 36 40 31 30 26 28 30 34 42 41 37 36 37 36 41 119 68 111 192 203 220 232 292 301 382 274 57 0 0 0 0 246 521 585 865 776 320
0 0 0 22 32 33 32 33 31 26 20 26 26 25 27 37 35 30 27 26 28 24 31 45 51 153 238 226 241 259 253 204 11 0 0 0 0 25 595 663 374 749 791
0 0 0 11 17 26 26 25 25 20 17 13 15 10 23 27 24 21 25 21 17 21 29 17 28 27 54 148 182 162 139 17 0 0 0 0 0 461 404 689 448 512 645
0 0 0 4 8 16 17 15 16 13 13 9 9 9 13 14 16 17 20 26 20 22 22 25 18 9 32 29 26 18 1 0 0 0 0 0 0 518 685 374 587 421 447
0 0 0 0 1 4 8 10 11 10 3 4 2 1 4 4 8 10 13 20 17 19 22 20 20 16 13 12 18 8 1 0 0 0 0 0 0 444 696 622 684 750 454
0 0 0 0 0 0 2 4 5 3 0 0 0 0 0 0 0 3 3 5 8 10 15 14 17 11 6 7 7 4 3 0 0 0 0 0 4 316 573 687 813 731 834
0 0 0 0 0 0 0 0 0 0 0 0 0 0 0 0 0 0 0 0 1 2 5 6 8 5 2 1 4 3 2 2 0 0 0 0 21 421 476 346 421 692 663
0 0 0 0 0 0 0 0 0 0 0 0 0 0 0 0 0 0 0 0 0 0 0 0 0 0 0 0 0 1 1 0 1 0 0 0 287 383 377 442 408 413 675
0 0 0 0 0 0 0 0 0 0 0 0 0 0 0 0 0 0 0 0 0 0 0 0 0 0 0 0 0 0 0 0 0 2 0 6 310 293 300 346 406 439 464
0 0 0 0 0 0 0 0 0 0 0 0 0 0 0 0 0 0 0 0 0 0 0 0 0 0 0 0 0 0 0 0 0 0 2 2 123 270 269 259 249 317 309
0 0 0 0 0 0 0 0 0 0 0 0 0 0 0 0 0 0 0 0 0 0 0 0 0 0 0 0 0 0 0 0 0 1 2 1 10 167 187 106 99 99 149
0 0 0 0 0 0 0 0 0 0 0 0 0 0 0 0 0 0 0 0 0 0 0 0 0 0 0 0 0 0 0 0 0 0 1 3 1 36 63 87 119 110 101
0 0 0 0 0 0 0 0 0 0 0 0 0 0 0 0 0 0 0 0 0 0 0 0 0 0 0 0 0 0 0 0 0 0 0 1 0 0 2 38 48 49 39
0 0 0 0 0 0 0 0 0 0 0 0 0 0 0 0 0 0 0 0 0 0 0 0 0 0 0 0 0 0 0 0 0 0 0 0 0 0 0 0 8 22 14
0 0 0 0 0 0 0 0 0 0 0 0 0 0 0 0 0 0 0 0 0 0 0 0 0 0 0 0 0 0 0 0 0 0 0 1 11 6 0 2 3 5 6
0 0 0 0 0 0 0 0 0 0 0 0 0 0 0 0 0 0 0 0 0 0 0 0 0 0 0 0 0 0 0 0 0 0 0 4 8 11 8 7 6 2 0
0 0 0 0 0 0 0 0 0 0 0 0 0 0 0 0 0 0 0 0 0 0 0 0 0 0 0 0 0 0 0 0 0 0 0 0 0 0 0 1 5 7 6
0 0 0 0 0 0 0 0 0 0 0 0 0 0 0 0 0 0 0 0 0 0 0 0 0 0 0 0 0 0 0 0 0 0 0 0 0 0 0 0 1 1 5
0 0 0 0 0 0 0 0 0 0 0 0 0 0 0 0 0 0 0 0 0 0 0 0 0 0 0 0 0 1 0 0 0 0 0 0 0 0 0 0 0 0 0
0 0 0 0 0 0 0 0 0 0 0 0 0 0 0 0 0 0 0 0 0 0 0 0 0 1 2 0 0 0 0 0 0 0 0 0 0 0 0 0 0 0 0
0 0 0 0 0 0 0 0 0 0 0 0 0 0 0 0 0 0 0 0 0 0 0 0 0 0 0 2 0 1 2 1 3 3 0 0 0 0 0 0 0 0 0
0 0 0 0 0 0 0 0 0 0 0 0 0 0 0 0 0 0 0 0 0 0 0 0 0 0 0 1 2 2 1 1 0 7 2 0 0 0 0 0 0 0 0
0 0 0 0 0 0 0 0 0 0 0 0 0 0 0 0 0 0 0 0 0 0 0 0 0 0 0 0 1 2 2 2 4 7 4 4 4 0 0 0 0 0 0